Date String (YYYY-MM-DD hh:mm:ss) UTC,Instrument flags,Ambient pressure (hPa),Sample flow (lpm),Bypass flow (lpm),Sample temperature (°C),Ambient temperature (°C),ASC tube jacket temperature (°C),LED temperature (°C),Box temperature (°C),Sample RH (%),Span deviation,Mass concentration (μg/m³),Mass concentration (μg/m³),Mass concentration (μg/m³)
DateTimeUTC,F1_M11,P_M11,Q1_M11,Q2_M11,T1_M11,T2_M11,T3_M11,T4_M11,T5_M11,U1_M11,ZSPAN_M11,X0_M11,X2_M11,X1_M11
2021-11-23 22:00:00,,0815.9,5.00,0.00,28.9,28.0,00.0,37.9,30.6,05.2,0000.0,0003.65,0000.89,0000.53
2021-11-23 22:01:00,,0815.9,5.00,0.00,28.9,28.0,00.0,37.9,30.7,05.2,0000.0,0003.86,0000.91,0000.52
2021-11-23 22:02:00,,0816.0,5.01,0.00,28.9,28.0,00.0,37.9,30.7,05.2,0000.0,0004.03,0000.96,0000.53
2021-11-23 22:03:00,,0816.0,5.00,0.00,28.9,28.0,00.0,37.9,30.7,05.2,0000.0,0003.68,0000.96,0000.53
2021-11-23 22:04:00,,0815.9,4.99,0.00,28.9,28.0,00.0,37.9,30.7,05.2,0000.0,0003.07,0000.97,0000.54
2021-11-23 22:05:00,,0815.8,5.01,0.00,29.0,28.0,00.0,37.9,30.7,05.2,0000.0,0003.28,0001.03,0000.54
2021-11-23 22:06:00,,0815.9,5.00,0.00,29.0,28.0,00.0,37.9,30.7,05.2,0000.0,0003.45,0001.03,0000.55
2021-11-23 22:07:00,,0815.9,5.01,0.00,29.0,28.0,00.0,37.9,30.7,05.2,0000.0,0003.70,0001.03,0000.55
2021-11-23 22:08:00,,0815.8,4.99,0.00,29.0,28.0,00.0,37.9,30.7,05.2,0000.0,0003.72,0001.03,0000.54
2021-11-23 22:09:00,,0815.9,4.99,0.00,29.0,28.0,00.0,37.9,30.7,05.2,0000.0,0003.67,0001.01,0000.54
2021-11-23 22:10:00,,0815.9,5.00,0.00,29.0,28.0,00.0,37.9,30.7,05.2,0000.0,0003.11,0000.96,0000.55
2021-11-23 22:11:00,,0815.9,5.00,0.00,29.0,28.0,00.0,37.9,30.7,05.2,0000.0,0002.40,0000.92,0000.55
2021-11-23 22:12:00,,0815.9,5.00,0.00,29.0,28.0,00.0,38.0,30.7,05.2,0000.0,0002.22,0000.91,0000.56
2021-11-23 22:13:00,,0815.9,5.00,0.00,29.0,28.0,00.0,38.0,30.6,05.2,0000.0,0002.27,0000.89,0000.56
2021-11-23 22:14:00,,0815.8,5.01,0.00,29.0,28.0,00.0,38.0,30.6,05.2,0000.0,0002.67,0000.95,0000.55
2021-11-23 22:15:00,,0815.9,4.99,0.00,29.0,28.0,00.0,38.0,30.6,05.2,0000.0,0004.85,0001.26,0000.56
2021-11-23 22:16:00,,0815.9,5.00,0.00,29.0,28.0,00.0,38.0,30.6,05.2,0000.0,0004.91,0001.24,0000.56
2021-11-23 22:17:00,,0815.9,5.00,0.00,29.0,28.0,00.0,38.0,30.6,05.2,0000.0,0005.33,0001.20,0000.57
2021-11-23 22:18:00,,0815.8,5.00,0.00,29.0,28.1,00.0,38.0,30.7,05.2,0000.0,0005.14,0001.23,0000.57
2021-11-23 22:19:00,,0815.8,5.00,0.00,29.0,28.0,00.0,38.0,30.7,05.2,0000.0,0005.14,0001.24,0000.58
2021-11-23 22:20:00,,0815.8,4.99,0.00,29.0,28.0,00.0,38.0,30.6,05.2,0000.0,0005.35,0001.25,0000.58
2021-11-23 22:21:00,,0815.8,5.00,0.00,29.0,28.0,00.0,38.0,30.6,05.2,0000.0,0005.83,0001.28,0000.58
2021-11-23 22:22:00,,0815.7,5.00,0.00,29.0,28.0,00.0,38.0,30.6,05.2,0000.0,0005.82,0001.28,0000.58
2021-11-23 22:23:00,,0815.6,5.00,0.00,29.0,28.0,00.0,38.0,30.7,05.2,0000.0,0005.71,0001.29,0000.58
2021-11-23 22:24:00,,0815.5,4.99,0.00,29.0,28.0,00.0,38.0,30.7,05.2,0000.0,0005.59,0001.31,0000.58
2021-11-23 22:25:00,,0815.5,5.02,0.00,29.0,28.0,00.0,38.0,30.7,05.2,0000.0,0005.17,0001.25,0000.59
2021-11-23 22:26:00,,0816.0,4.99,0.00,29.0,28.1,00.0,38.0,30.7,05.2,0000.0,0003.00,0000.92,0000.58
2021-11-23 22:27:00,,0816.1,4.99,0.00,29.0,28.1,00.0,38.0,30.7,05.2,0000.0,0003.34,0000.90,0000.58
2021-11-23 22:28:00,,0816.0,5.01,0.00,29.0,28.0,00.0,38.0,30.7,05.2,0000.0,0002.86,0000.95,0000.58
2021-11-23 22:29:00,,0815.6,5.01,0.00,29.0,28.1,00.0,38.0,30.7,05.2,0000.0,0003.01,0000.97,0000.57
2021-11-23 22:30:00,,0815.4,4.99,0.00,29.0,28.0,00.0,38.0,30.6,05.2,0000.0,0003.06,0000.97,0000.56
2021-11-23 22:31:00,,0815.4,5.00,0.00,29.0,28.0,00.0,38.0,30.7,05.3,0000.0,0003.02,0000.96,0000.56
2021-11-23 22:32:00,,0815.8,4.99,0.00,29.0,28.0,00.0,38.0,30.7,05.2,0000.0,0002.60,0000.96,0000.56
2021-11-23 22:33:00,,0816.1,5.01,0.00,29.0,28.1,00.0,38.0,30.7,05.2,0000.0,0002.70,0001.01,0000.57
2021-11-23 22:34:00,,0815.9,5.00,0.00,29.0,28.1,00.0,38.0,30.7,05.3,0000.0,0002.74,0001.01,0000.56
2021-11-23 22:35:00,,0815.7,4.99,0.00,29.0,28.1,00.0,38.0,30.7,05.3,0000.0,0002.80,0000.99,0000.56
2021-11-23 22:36:00,,0815.8,5.00,0.00,29.0,28.1,00.0,38.0,30.7,05.3,0000.0,0003.09,0000.98,0000.55
2021-11-23 22:37:00,,0815.3,5.01,0.00,29.0,28.1,00.0,38.0,30.7,05.3,0000.0,0003.23,0000.98,0000.56
2021-11-23 22:38:00,,0815.2,4.99,0.00,29.0,28.1,00.0,38.0,30.7,05.4,0000.0,0002.79,0001.01,0000.56
2021-11-23 22:39:00,,0815.4,5.02,0.00,29.0,28.0,00.0,38.0,30.7,05.4,0000.0,0002.96,0001.03,0000.57
2021-11-23 22:40:00,,0815.4,4.99,0.00,29.0,28.0,00.0,38.0,30.7,05.4,0000.0,0003.13,0001.03,0000.59
2021-11-23 22:41:00,,0815.4,5.00,0.00,29.0,28.0,00.0,38.0,30.7,05.4,0000.0,0003.16,0001.06,0000.60
2021-11-23 22:42:00,,0815.3,5.01,0.00,29.0,28.0,00.0,38.0,30.7,05.5,0000.0,0003.00,0001.05,0000.60
2021-11-23 22:43:00,,0815.4,4.99,0.00,29.0,28.0,00.0,38.0,30.7,05.5,0000.0,0002.95,0001.04,0000.60
2021-11-23 22:44:00,,0815.3,4.99,0.00,29.0,28.0,00.0,38.0,30.7,05.5,0000.0,0002.87,0001.02,0000.60
2021-11-23 22:45:00,,0815.4,5.01,0.00,29.0,27.9,00.0,38.0,30.7,05.5,0000.0,0002.81,0001.01,0000.62
2021-11-23 22:46:00,,0815.4,5.00,0.00,28.9,27.9,00.0,38.0,30.7,05.4,0000.0,0002.88,0001.05,0000.63
2021-11-23 22:47:00,,0815.4,5.00,0.00,28.9,27.9,00.0,38.0,30.6,05.4,0000.0,0002.63,0001.06,0000.62
2021-11-23 22:48:00,,0815.4,5.00,0.00,28.9,27.9,00.0,38.0,30.6,05.5,0000.0,0002.83,0001.04,0000.62
2021-11-23 22:49:00,,0815.3,5.00,0.00,28.9,27.9,00.0,38.0,30.6,05.5,0000.0,0002.90,0001.05,0000.62
2021-11-23 22:50:00,,0815.4,5.00,0.00,28.9,27.9,00.0,38.0,30.6,05.5,0000.0,0002.74,0001.02,0000.61
2021-11-23 22:51:00,,0815.4,5.01,0.00,28.9,27.9,00.0,38.0,30.6,05.5,0000.0,0002.36,0000.97,0000.61
2021-11-23 22:52:00,,0815.3,5.00,0.00,28.8,27.8,00.0,37.9,30.5,05.6,0000.0,0002.31,0000.94,0000.61
2021-11-23 22:53:00,,0815.4,5.00,0.00,28.8,27.8,00.0,37.9,30.4,05.6,0000.0,0002.52,0001.00,0000.62
2021-11-23 22:54:00,,0815.4,5.01,0.00,28.8,27.8,00.0,37.9,30.4,05.6,0000.0,0003.41,0001.00,0000.63
2021-11-23 22:55:00,,0815.2,5.00,0.00,28.7,27.8,00.0,37.9,30.3,05.6,0000.0,0003.97,0000.99,0000.63
2021-11-23 22:56:00,,0815.3,5.00,0.00,28.7,27.8,00.0,37.9,30.4,05.7,0000.0,0004.16,0000.97,0000.62
2021-11-23 22:57:00,,0815.4,4.98,0.00,28.7,27.7,00.0,37.9,30.4,05.7,0000.0,0004.04,0000.92,0000.61
2021-11-23 22:58:00,,0815.4,5.01,0.00,28.7,27.7,00.0,37.8,30.4,05.8,0000.0,0004.01,0000.91,0000.61
2021-11-23 22:59:00,,0815.4,4.99,0.00,28.7,27.7,00.0,37.8,30.4,05.8,0000.0,0003.69,0000.91,0000.62
